Location: Del Amo
(33.8464°N, 118.2104°W)
Time: 19:38:36
(UTC+00:00)

Vanguard 1 Rocket - Pass Details

Date: 22 September 2024
Orbit: 650 x 4218 km, 34.3° (Epoch: 04 October)

Event Time Altitude Azimuth Distance (km) Brightness Sun altitude
Rises 11:17:25 0° 263° (W) 4,848 - -30.0°
Reaches altitude 10° 11:19:56 10° 264° (W) 4,186 - -29.5°
Exits shadow 11:25:45 42° 265° (W) 3,038 9.5 -28.4°
Maximum altitude 11:32:23 89° 355° (N) 2,852 9.7 -27.1°
Drops below altitude 10° 11:56:08 10° 88° (E) 7,273 13.0 -22.4°
Sets 12:02:18 0° 89° (E) 8,443 13.7 -21.2°
